Location: *
(49.5667°N, 1.3667°W)
Time: 23:33:22
(UTC+00:00)

DMSP B5D2-2 - Pass Details

Date: 20 September 2019
Orbit: 790 x 806 km, 98.4° (Epoch: 21 October)

Event Time Altitude Azimuth Distance (km) Brightness Sun altitude
Rises 20:43:26 0° 15° (NNE) 3,334 7.6 -24.5°
Reaches altitude 10° 20:45:47 10° 17° (NNE) 2,399 6.8 -24.8°
Maximum altitude 20:51:06 79° 104° (ESE) 828 3.9 -25.5°
Enters shadow 20:51:28 74° 149° (SSE) 842 3.9 -25.5°
